Location: Saluda
(35.2377°N, 82.3468°W)
Time: 15:16:42
(UTC+00:00)

Explorer 11/Cluster Stage 4 - Pass Details

Date: 08 October 2022
Orbit: 466 x 1247 km, 28.8° (Epoch: 08 December)

Event Time Altitude Azimuth Distance (km) Brightness Sun altitude
Rises 16:08:10 0° 256° (WSW) 4,095 10.2 45.7°
Reaches altitude 10° 16:11:04 10° 252° (WSW) 3,178 9.8 45.9°
Maximum altitude 16:18:57 55° 177° (S) 1,470 10.0 46.5°
Drops below altitude 10° 16:26:39 10° 103° (ESE) 3,098 10.1 47.0°
Sets 16:29:26 0° 99° (E) 3,987 10.4 47.2°
